{"data":{"norad_id":44065,"epoch":"2026-05-24T05:08:05.806176Z","epoch_age_seconds":149759,"freshness":"FRESH","line1":"1 44065U 19009D   26144.21395609 -.00000131  00000+0  00000+0 0  9994","line2":"2 44065   6.5024  71.1186 0002262 133.1083  37.7935  0.99336027 26206","mean_motion":0.99336027,"eccentricity":0.0002262,"inclination_deg":6.5024,"raan_deg":71.1186,"arg_perigee_deg":133.1083,"mean_anomaly_deg":37.7935,"bstar":0,"rev_number":2620,"period_min":1449.625119394,"perigee_km":36041.381577098,"apogee_km":36060.576509196,"semimajor_km":42429.116043147,"source":"CELESTRAK","updated_at":"2026-05-25T13:37:55.936780Z"}}